Hourly Weather Russkie Saraly

Today, 16 April, Friday

Time Temperature Precipitation Wind Pressure Humidity
00:00 +12°C° 0 mm 1 mps 758 mmHg 65%
01:00 +12°C° 0 mm 2 mps 759 mmHg 74%
02:00 +10°C° 0 mm 3 mps 759 mmHg 84%
03:00 +8°C° 0 mm 4 mps 759 mmHg 93%
04:00 +8°C° 0 mm 5 mps 760 mmHg 93%
05:00 +8°C° 0 mm 5 mps 760 mmHg 94%
06:00 +8°C° 0 mm 6 mps 760 mmHg 94%
07:00 +8°C° 0 mm 6 mps 760 mmHg 90%
08:00 +8°C° 0 mm 6 mps 761 mmHg 87%
09:00 +8°C° 0 mm 6 mps 761 mmHg 83%
10:00 +9°C° 0 mm 6 mps 761 mmHg 79%
11:00 +10°C° 0 mm 6 mps 761 mmHg 74%
12:00 +11°C° 0 mm 6 mps 762 mmHg 70%
13:00 +11°C° 0 mm 6 mps 762 mmHg 68%
14:00 +11°C° 0 mm 6 mps 762 mmHg 67%
15:00 +11°C° 0 mm 6 mps 762 mmHg 66%
16:00 +10°C° 0 mm 6 mps 762 mmHg 66%
17:00 +10°C° 0 mm 6 mps 762 mmHg 67%
18:00 +9°C° 0 mm 5 mps 762 mmHg 67%
19:00 +8°C° 0 mm 5 mps 762 mmHg 67%
20:00 +8°C° 0 mm 5 mps 763 mmHg 68%
21:00 +7°C° 0 mm 5 mps 763 mmHg 68%
22:00 +6°C° 0 mm 5 mps 763 mmHg 69%
23:00 +5°C° 0 mm 5 mps 763 mmHg 69%

Tomorrow, 17 April, Saturday

Time Temperature Precipitation Wind Pressure Humidity
00:00 +5°C° 0 mm 5 mps 763 mmHg 69%
01:00 +4°C° 0 mm 4 mps 763 mmHg 71%
02:00 +4°C° 0 mm 4 mps 763 mmHg 73%
03:00 +3°C° 0 mm 4 mps 764 mmHg 74%
04:00 +3°C° 0 mm 4 mps 764 mmHg 74%
05:00 +3°C° 0 mm 4 mps 764 mmHg 74%
06:00 +3°C° 0 mm 4 mps 764 mmHg 73%
07:00 +3°C° 0 mm 5 mps 764 mmHg 68%
08:00 +6°C° 0 mm 5 mps 764 mmHg 62%
09:00 +7°C° 0 mm 5 mps 764 mmHg 56%
10:00 +8°C° 0 mm 5 mps 764 mmHg 53%
11:00 +9°C° 0 mm 5 mps 764 mmHg 49%
12:00 +10°C° 0 mm 5 mps 764 mmHg 45%
13:00 +10°C° 0 mm 5 mps 764 mmHg 43%
14:00 +10°C° 0 mm 5 mps 763 mmHg 41%
15:00 +12°C° 0 mm 5 mps 763 mmHg 39%
16:00 +11°C° 0 mm 4 mps 763 mmHg 42%
17:00 +10°C° 0 mm 3 mps 763 mmHg 46%
18:00 +9°C° 0 mm 3 mps 763 mmHg 50%
19:00 +8°C° 0 mm 3 mps 763 mmHg 54%
20:00 +7°C° 0 mm 3 mps 763 mmHg 58%
21:00 +5°C° 0 mm 3 mps 763 mmHg 62%
22:00 +5°C° 0 mm 3 mps 763 mmHg 64%
23:00 +4°C° 0 mm 4 mps 763 mmHg 66%

Day after tomorrow, 18 April, Sunday

Time Temperature Precipitation Wind Pressure Humidity
00:00 +4°C° 0 mm 4 mps 763 mmHg 68%
01:00 +3°C° 0 mm 3 mps 763 mmHg 70%
02:00 +3°C° 0 mm 3 mps 763 mmHg 72%
03:00 +3°C° 0 mm 2 mps 763 mmHg 74%
04:00 +2°C° 0 mm 3 mps 763 mmHg 74%
05:00 +2°C° 0 mm 3 mps 763 mmHg 74%
06:00 +3°C° 0 mm 3 mps 763 mmHg 74%
07:00 +4°C° 0 mm 4 mps 763 mmHg 68%
08:00 +6°C° 0 mm 4 mps 763 mmHg 62%
09:00 +7°C° 0 mm 4 mps 763 mmHg 56%
10:00 +8°C° 0 mm 4 mps 763 mmHg 52%
11:00 +9°C° 0 mm 5 mps 763 mmHg 49%
12:00 +10°C° 0 mm 5 mps 763 mmHg 45%
13:00 +10°C° 0 mm 5 mps 763 mmHg 45%
14:00 +10°C° 0 mm 5 mps 763 mmHg 45%
15:00 +12°C° 0 mm 5 mps 763 mmHg 45%
16:00 +10°C° 0 mm 5 mps 763 mmHg 49%
17:00 +10°C° 0 mm 4 mps 763 mmHg 52%
18:00 +10°C° 0 mm 4 mps 763 mmHg 56%
19:00 +7°C° 0 mm 5 mps 763 mmHg 61%
20:00 +5°C° 0 mm 6 mps 764 mmHg 66%
21:00 +4°C° 0 mm 7 mps 764 mmHg 70%
22:00 +3°C° 0 mm 7 mps 764 mmHg 67%
23:00 +2°C° 0 mm 6 mps 765 mmHg 64%

19 April, Monday

Time Temperature Precipitation Wind Pressure Humidity
00:00 +2°C° 0 mm 5 mps 765 mmHg 61%
01:00 +1°C° 0 mm 5 mps 765 mmHg 61%
02:00 +1°C° 0 mm 5 mps 765 mmHg 62%
03:00 0°C° 0 mm 5 mps 765 mmHg 62%
04:00 0°C° 0 mm 5 mps 766 mmHg 65%
05:00 -1°C° 0 mm 6 mps 766 mmHg 67%
06:00 -1°C° 0 mm 6 mps 766 mmHg 69%
07:00 0°C° 0 mm 7 mps 766 mmHg 63%
08:00 +1°C° 0 mm 8 mps 767 mmHg 57%
09:00 +1°C° 0 mm 8 mps 767 mmHg 51%
10:00 +2°C° 0 mm 8 mps 767 mmHg 50%
11:00 +4°C° 0 mm 8 mps 767 mmHg 49%
12:00 +4°C° 0 mm 8 mps 767 mmHg 48%
13:00 +5°C° 0 mm 8 mps 767 mmHg 48%
14:00 +5°C° 0 mm 8 mps 767 mmHg 47%
15:00 +5°C° 0 mm 7 mps 767 mmHg 46%
16:00 +5°C° 0 mm 7 mps 767 mmHg 48%
17:00 +5°C° 0 mm 6 mps 767 mmHg 50%
18:00 +4°C° 0 mm 6 mps 767 mmHg 51%
19:00 +3°C° 0 mm 6 mps 767 mmHg 52%
20:00 +3°C° 0 mm 6 mps 767 mmHg 53%
21:00 +2°C° 0 mm 6 mps 768 mmHg 54%
22:00 +1°C° 0 mm 6 mps 768 mmHg 54%
23:00 +1°C° 0 mm 6 mps 767 mmHg 55%

20 April, Tuesday

Time Temperature Precipitation Wind Pressure Humidity
00:00 -1°C° 0 mm 6 mps 767 mmHg 55%
01:00 -1°C° 0 mm 6 mps 768 mmHg 58%
02:00 -2°C° 0 mm 6 mps 768 mmHg 60%
03:00 -2°C° 0 mm 6 mps 768 mmHg 63%
04:00 -2°C° 0 mm 6 mps 768 mmHg 64%
05:00 -2°C° 0 mm 6 mps 768 mmHg 65%
06:00 -2°C° 0 mm 6 mps 768 mmHg 66%
07:00 0°C° 0 mm 7 mps 768 mmHg 60%
08:00 +2°C° 0 mm 7 mps 768 mmHg 54%
09:00 +2°C° 0 mm 8 mps 768 mmHg 48%
10:00 +4°C° 0 mm 7 mps 768 mmHg 44%
11:00 +5°C° 0 mm 7 mps 768 mmHg 41%
12:00 +6°C° 0 mm 7 mps 767 mmHg 37%
13:00 +8°C° 0 mm 7 mps 767 mmHg 35%
14:00 +8°C° 0 mm 7 mps 767 mmHg 33%
15:00 +9°C° 0 mm 7 mps 766 mmHg 31%
16:00 +8°C° 0 mm 7 mps 766 mmHg 34%
17:00 +7°C° 0 mm 6 mps 766 mmHg 37%
18:00 +7°C° 0 mm 6 mps 766 mmHg 40%
19:00 +5°C° 0 mm 6 mps 766 mmHg 42%
20:00 +4°C° 0 mm 6 mps 766 mmHg 44%
21:00 +3°C° 0 mm 6 mps 766 mmHg 47%
22:00 +3°C° 0 mm 6 mps 766 mmHg 48%
23:00 +3°C° 0 mm 6 mps 766 mmHg 49%

21 April, Wednesday

Time Temperature Precipitation Wind Pressure Humidity
00:00 +2°C° 0 mm 6 mps 766 mmHg 50%
01:00 +2°C° 0 mm 6 mps 766 mmHg 51%
02:00 +2°C° 0 mm 7 mps 766 mmHg 52%
03:00 0°C° 0 mm 7 mps 765 mmHg 53%
04:00 0°C° 0 mm 7 mps 765 mmHg 53%
05:00 0°C° 0 mm 7 mps 765 mmHg 54%
06:00 0°C° 0 mm 8 mps 765 mmHg 55%
07:00 +1°C° 0 mm 8 mps 765 mmHg 52%
08:00 +2°C° 0 mm 8 mps 765 mmHg 49%
09:00 +4°C° 0 mm 8 mps 765 mmHg 46%
10:00 +4°C° 0 mm 8 mps 765 mmHg 46%
11:00 +5°C° 0 mm 7 mps 765 mmHg 45%
12:00 +5°C° 0 mm 7 mps 765 mmHg 45%
13:00 +5°C° 0 mm 7 mps 765 mmHg 48%
14:00 +5°C° 0 mm 6 mps 765 mmHg 52%
15:00 +6°C° 0 mm 5 mps 765 mmHg 56%
16:00 +5°C° 0 mm 5 mps 765 mmHg 60%
17:00 +5°C° 0 mm 5 mps 765 mmHg 65%
18:00 +3°C° 0 mm 5 mps 765 mmHg 70%
19:00 +3°C° 0 mm 5 mps 766 mmHg 74%
20:00 +3°C° 0 mm 6 mps 766 mmHg 79%
21:00 +2°C° 0 mm 6 mps 766 mmHg 84%
22:00 +2°C° 0.2 mm 6 mps 766 mmHg 88%
23:00 +2°C° 0.2 mm 6 mps 765 mmHg 92%
Show more